owner,sensor,date,latitude,longitude,vertical_datum,wind_speed,wind_to_direction,wind_speed_of_gust,qcFlag 
WAVCIS,ioos:station:WAVCIS:CSI06:1,2008-11-01T00:00:00Z,28.8667,-90.4833,10.0,7.13,50.0,,'11111222,11111222,99999999' 
WAVCIS,ioos:station:WAVCIS:CSI06:1,2008-11-01T02:00:00Z,28.8667,-90.4833,10.0,7.66,47.0,,'11111222,11111222,99999999' 
WAVCIS,ioos:station:WAVCIS:CSI06:1,2008-11-01T03:00:00Z,28.8667,-90.4833,10.0,7.28,49.0,,'11111222,11111222,99999999' 
WAVCIS,ioos:station:WAVCIS:CSI06:1,2008-11-01T04:00:00Z,28.8667,-90.4833,10.0,6.58,56.0,,'11111222,11111222,99999999' 
WAVCIS,ioos:station:WAVCIS:CSI06:1,2008-11-01T05:00:00Z,28.8667,-90.4833,10.0,6.329,60.0,,'11111222,11111222,99999999' 
WAVCIS,ioos:station:WAVCIS:CSI06:1,2008-11-01T06:00:00Z,28.8667,-90.4833,10.0,7.18,44.0,,'11111222,11111222,99999999' 
WAVCIS,ioos:station:WAVCIS:CSI06:1,2008-11-01T07:00:00Z,28.8667,-90.4833,10.0,7.31,54.0,,'11111222,11111222,99999999' 
WAVCIS,ioos:station:WAVCIS:CSI06:1,2008-11-01T08:00:00Z,28.8667,-90.4833,10.0,7.62,54.0,,'11111222,11111222,99999999' 
WAVCIS,ioos:station:WAVCIS:CSI06:1,2008-11-01T09:00:00Z,28.8667,-90.4833,10.0,6.799,41.0,,'11111222,11111222,99999999' 
WAVCIS,ioos:station:WAVCIS:CSI06:1,2008-11-01T10:00:00Z,28.8667,-90.4833,10.0,7.51,43.0,,'11111222,11111222,99999999' 
WAVCIS,ioos:station:WAVCIS:CSI06:1,2008-11-01T11:00:00Z,28.8667,-90.4833,10.0,7.24,43.0,,'11111222,11111222,99999999' 
WAVCIS,ioos:station:WAVCIS:CSI06:1,2008-11-01T12:00:00Z,28.8667,-90.4833,10.0,8.63,44.0,,'11111222,11111222,99999999' 
WAVCIS,ioos:station:WAVCIS:CSI06:1,2008-11-01T13:00:00Z,28.8667,-90.4833,10.0,8.6,51.0,,'11111222,11111222,99999999' 
WAVCIS,ioos:station:WAVCIS:CSI06:1,2008-11-01T15:00:00Z,28.8667,-90.4833,10.0,8.31,58.0,,'11111222,11111222,99999999' 
WAVCIS,ioos:station:WAVCIS:CSI06:1,2008-11-01T16:00:00Z,28.8667,-90.4833,10.0,7.89,58.0,,'11111222,11111222,99999999' 
WAVCIS,ioos:station:WAVCIS:CSI06:1,2008-11-01T17:00:00Z,28.8667,-90.4833,10.0,6.945,56.0,,'11111222,11111222,99999999' 
WAVCIS,ioos:station:WAVCIS:CSI06:1,2008-11-01T19:00:00Z,28.8667,-90.4833,10.0,5.77,50.0,,'11111222,11111222,99999999' 
WAVCIS,ioos:station:WAVCIS:CSI06:1,2008-11-01T20:00:00Z,28.8667,-90.4833,10.0,6.017,54.0,,'11111222,11111222,99999999' 
WAVCIS,ioos:station:WAVCIS:CSI06:1,2008-11-01T21:00:00Z,28.8667,-90.4833,10.0,6.201,48.0,,'11111222,11111222,99999999' 
WAVCIS,ioos:station:WAVCIS:CSI06:1,2008-11-01T22:00:00Z,28.8667,-90.4833,10.0,6.219,45.0,,'11111222,11111222,99999999' 
WAVCIS,ioos:station:WAVCIS:CSI06:1,2008-11-01T23:00:00Z,28.8667,-90.4833,10.0,7.07,60.0,,'11111222,11111222,99999999' 
WAVCIS,ioos:station:WAVCIS:CSI06:1,2008-11-02T00:00:00Z,28.8667,-90.4833,10.0,7.55,62.0,,'11111222,11111222,99999999' 
WAVCIS,ioos:station:WAVCIS:CSI06:1,2008-11-02T01:00:00Z,28.8667,-90.4833,10.0,7.4,60.0,,'11111222,11111222,99999999' 
WAVCIS,ioos:station:WAVCIS:CSI06:1,2008-11-02T02:00:00Z,28.8667,-90.4833,10.0,6.458,60.0,,'11111222,11111222,99999999' 
WAVCIS,ioos:station:WAVCIS:CSI06:1,2008-11-02T03:00:00Z,28.8667,-90.4833,10.0,5.681,66.0,,'11111222,11111222,99999999' 
WAVCIS,ioos:station:WAVCIS:CSI06:1,2008-11-02T04:00:00Z,28.8667,-90.4833,10.0,5.637,68.0,,'11111222,11111222,99999999' 
WAVCIS,ioos:station:WAVCIS:CSI06:1,2008-11-02T05:00:00Z,28.8667,-90.4833,10.0,5.481,62.0,,'11111222,11111222,99999999' 
WAVCIS,ioos:station:WAVCIS:CSI06:1,2008-11-02T06:00:00Z,28.8667,-90.4833,10.0,4.32,47.0,,'11111222,11111222,99999999' 
WAVCIS,ioos:station:WAVCIS:CSI06:1,2008-11-02T07:00:00Z,28.8667,-90.4833,10.0,6.379,59.0,,'11111222,11111222,99999999' 
WAVCIS,ioos:station:WAVCIS:CSI06:1,2008-11-02T08:00:00Z,28.8667,-90.4833,10.0,5.391,53.0,,'11111222,11111222,99999999' 
WAVCIS,ioos:station:WAVCIS:CSI06:1,2008-11-02T09:00:00Z,28.8667,-90.4833,10.0,5.379,52.0,,'11111222,11111222,99999999' 
WAVCIS,ioos:station:WAVCIS:CSI06:1,2008-11-02T10:00:00Z,28.8667,-90.4833,10.0,5.388,56.0,,'11111222,11111222,99999999' 
WAVCIS,ioos:station:WAVCIS:CSI06:1,2008-11-02T11:00:00Z,28.8667,-90.4833,10.0,3.958,47.0,,'11111222,11111222,99999999' 
WAVCIS,ioos:station:WAVCIS:CSI06:1,2008-11-02T12:00:00Z,28.8667,-90.4833,10.0,5.678,43.0,,'11111222,11111222,99999999' 
WAVCIS,ioos:station:WAVCIS:CSI06:1,2008-11-02T13:00:00Z,28.8667,-90.4833,10.0,5.926,40.0,,'11111222,11111222,99999999' 
WAVCIS,ioos:station:WAVCIS:CSI06:1,2008-11-02T14:00:00Z,28.8667,-90.4833,10.0,7.38,31.0,,'11111222,11111222,99999999' 
WAVCIS,ioos:station:WAVCIS:CSI06:1,2008-11-02T15:00:00Z,28.8667,-90.4833,10.0,8.19,37.0,,'11111222,11111222,99999999' 
WAVCIS,ioos:station:WAVCIS:CSI06:1,2008-11-02T16:00:00Z,28.8667,-90.4833,10.0,7.57,42.0,,'11111222,11111222,99999999' 
WAVCIS,ioos:station:WAVCIS:CSI06:1,2008-11-02T17:00:00Z,28.8667,-90.4833,10.0,5.827,42.0,,'11111222,11111222,99999999' 
WAVCIS,ioos:station:WAVCIS:CSI06:1,2008-11-02T18:00:00Z,28.8667,-90.4833,10.0,6.478,29.0,,'11111222,11111222,99999999' 
WAVCIS,ioos:station:WAVCIS:CSI06:1,2008-11-02T19:00:00Z,28.8667,-90.4833,10.0,5.211,40.0,,'11111222,11111222,99999999' 
WAVCIS,ioos:station:WAVCIS:CSI06:1,2008-11-02T20:00:00Z,28.8667,-90.4833,10.0,6.039,31.0,,'11111222,11111222,99999999' 
WAVCIS,ioos:station:WAVCIS:CSI06:1,2008-11-02T21:00:00Z,28.8667,-90.4833,10.0,6.335,34.0,,'11111222,11111222,99999999' 
WAVCIS,ioos:station:WAVCIS:CSI06:1,2008-11-02T22:00:00Z,28.8667,-90.4833,10.0,5.269,53.0,,'11111222,11111222,99999999' 
WAVCIS,ioos:station:WAVCIS:CSI06:1,2008-11-02T23:00:00Z,28.8667,-90.4833,10.0,5.825,49.0,,'11111222,11111222,99999999' 
WAVCIS,ioos:station:WAVCIS:CSI06:1,2008-11-03T00:00:00Z,28.8667,-90.4833,10.0,6.431,47.0,,'11111222,11111222,99999999' 
WAVCIS,ioos:station:WAVCIS:CSI06:1,2008-11-03T01:00:00Z,28.8667,-90.4833,10.0,6.318,49.0,,'11111222,11111222,99999999' 
WAVCIS,ioos:station:WAVCIS:CSI06:1,2008-11-03T02:00:00Z,28.8667,-90.4833,10.0,7.12,55.0,,'11111222,11111222,99999999' 
WAVCIS,ioos:station:WAVCIS:CSI06:1,2008-11-03T03:00:00Z,28.8667,-90.4833,10.0,6.52,47.0,,'11111222,11111222,99999999' 
WAVCIS,ioos:station:WAVCIS:CSI06:1,2008-11-03T04:00:00Z,28.8667,-90.4833,10.0,6.794,59.0,,'11111222,11111222,99999999' 
WAVCIS,ioos:station:WAVCIS:CSI06:1,2008-11-03T05:00:00Z,28.8667,-90.4833,10.0,6.059,66.0,,'11111222,11111222,99999999' 
WAVCIS,ioos:station:WAVCIS:CSI06:1,2008-11-03T06:00:00Z,28.8667,-90.4833,10.0,5.592,62.0,,'11111222,11111222,99999999' 
WAVCIS,ioos:station:WAVCIS:CSI06:1,2008-11-03T07:00:00Z,28.8667,-90.4833,10.0,5.648,38.0,,'11111222,11111222,99999999' 
WAVCIS,ioos:station:WAVCIS:CSI06:1,2008-11-03T08:00:00Z,28.8667,-90.4833,10.0,5.648,42.0,,'11111222,11111222,99999999' 
WAVCIS,ioos:station:WAVCIS:CSI06:1,2008-11-03T09:00:00Z,28.8667,-90.4833,10.0,4.977,38.0,,'11111222,11111222,99999999' 
WAVCIS,ioos:station:WAVCIS:CSI06:1,2008-11-03T10:00:00Z,28.8667,-90.4833,10.0,7.44,28.0,,'11111222,11111222,99999999' 
WAVCIS,ioos:station:WAVCIS:CSI06:1,2008-11-03T11:00:00Z,28.8667,-90.4833,10.0,8.85,27.0,,'11111222,11111222,99999999' 
WAVCIS,ioos:station:WAVCIS:CSI06:1,2008-11-03T12:00:00Z,28.8667,-90.4833,10.0,7.92,22.0,,'11111222,11111222,99999999' 
WAVCIS,ioos:station:WAVCIS:CSI06:1,2008-11-03T13:00:00Z,28.8667,-90.4833,10.0,8.23,30.0,,'11111222,11111222,99999999' 
WAVCIS,ioos:station:WAVCIS:CSI06:1,2008-11-03T14:00:00Z,28.8667,-90.4833,10.0,6.566,39.0,,'11111222,11111222,99999999' 
WAVCIS,ioos:station:WAVCIS:CSI06:1,2008-11-03T15:00:00Z,28.8667,-90.4833,10.0,6.158,33.0,,'11111222,11111222,99999999' 
WAVCIS,ioos:station:WAVCIS:CSI06:1,2008-11-03T16:00:00Z,28.8667,-90.4833,10.0,5.968,43.0,,'11111222,11111222,99999999' 
WAVCIS,ioos:station:WAVCIS:CSI06:1,2008-11-03T17:00:00Z,28.8667,-90.4833,10.0,7.71,49.0,,'11111222,11111222,99999999' 
WAVCIS,ioos:station:WAVCIS:CSI06:1,2008-11-03T18:00:00Z,28.8667,-90.4833,10.0,8.28,52.0,,'11111222,11111222,99999999' 
WAVCIS,ioos:station:WAVCIS:CSI06:1,2008-11-03T19:00:00Z,28.8667,-90.4833,10.0,9.56,58.0,,'11111222,11111222,99999999' 
WAVCIS,ioos:station:WAVCIS:CSI06:1,2008-11-03T20:00:00Z,28.8667,-90.4833,10.0,9.67,59.0,,'11111222,11111222,99999999' 
WAVCIS,ioos:station:WAVCIS:CSI06:1,2008-11-03T21:00:00Z,28.8667,-90.4833,10.0,8.47,58.0,,'11111222,11111222,99999999' 
WAVCIS,ioos:station:WAVCIS:CSI06:1,2008-11-03T22:00:00Z,28.8667,-90.4833,10.0,7.27,58.0,,'11111222,11111222,99999999' 
WAVCIS,ioos:station:WAVCIS:CSI06:1,2008-11-03T23:00:00Z,28.8667,-90.4833,10.0,8.83,56.0,,'11111222,11111222,99999999' 
WAVCIS,ioos:station:WAVCIS:CSI06:1,2008-11-04T00:00:00Z,28.8667,-90.4833,10.0,8.89,59.0,,'11111222,11111222,99999999' 
WAVCIS,ioos:station:WAVCIS:CSI06:1,2008-11-04T01:00:00Z,28.8667,-90.4833,10.0,7.34,60.0,,'11111222,11111222,99999999' 
WAVCIS,ioos:station:WAVCIS:CSI06:1,2008-11-04T02:00:00Z,28.8667,-90.4833,10.0,8.23,60.0,,'11111222,11111222,99999999' 
WAVCIS,ioos:station:WAVCIS:CSI06:1,2008-11-04T03:00:00Z,28.8667,-90.4833,10.0,7.36,69.0,,'11111222,11111222,99999999' 
WAVCIS,ioos:station:WAVCIS:CSI06:1,2008-11-04T04:00:00Z,28.8667,-90.4833,10.0,8.23,74.0,,'11111222,11111222,99999999' 
WAVCIS,ioos:station:WAVCIS:CSI06:1,2008-11-04T05:00:00Z,28.8667,-90.4833,10.0,9.12,80.0,,'11111222,11111222,99999999' 
WAVCIS,ioos:station:WAVCIS:CSI06:1,2008-11-04T06:00:00Z,28.8667,-90.4833,10.0,8.87,88.0,,'11111222,11111222,99999999' 
WAVCIS,ioos:station:WAVCIS:CSI06:1,2008-11-04T07:00:00Z,28.8667,-90.4833,10.0,8.12,88.0,,'11111222,11111222,99999999' 
WAVCIS,ioos:station:WAVCIS:CSI06:1,2008-11-04T08:00:00Z,28.8667,-90.4833,10.0,7.25,78.0,,'11111222,11111222,99999999' 
WAVCIS,ioos:station:WAVCIS:CSI06:1,2008-11-04T09:00:00Z,28.8667,-90.4833,10.0,7.46,70.0,,'11111222,11111222,99999999' 
WAVCIS,ioos:station:WAVCIS:CSI06:1,2008-11-04T10:00:00Z,28.8667,-90.4833,10.0,6.767,51.0,,'11111222,11111222,99999999' 
WAVCIS,ioos:station:WAVCIS:CSI06:1,2008-11-04T11:00:00Z,28.8667,-90.4833,10.0,7.5,53.0,,'11111222,11111222,99999999' 
WAVCIS,ioos:station:WAVCIS:CSI06:1,2008-11-04T12:00:00Z,28.8667,-90.4833,10.0,6.411,44.0,,'11111222,11111222,99999999' 
WAVCIS,ioos:station:WAVCIS:CSI06:1,2008-11-04T13:00:00Z,28.8667,-90.4833,10.0,6.09,40.0,,'11111222,11111222,99999999' 
WAVCIS,ioos:station:WAVCIS:CSI06:1,2008-11-04T14:00:00Z,28.8667,-90.4833,10.0,7.28,51.0,,'11111222,11111222,99999999' 
WAVCIS,ioos:station:WAVCIS:CSI06:1,2008-11-04T15:00:00Z,28.8667,-90.4833,10.0,7.85,54.0,,'11111222,11111222,99999999' 
WAVCIS,ioos:station:WAVCIS:CSI06:1,2008-11-04T16:00:00Z,28.8667,-90.4833,10.0,8.04,59.0,,'11111222,11111222,99999999' 
WAVCIS,ioos:station:WAVCIS:CSI06:1,2008-11-04T17:00:00Z,28.8667,-90.4833,10.0,8.05,57.0,,'11111222,11111222,99999999' 
WAVCIS,ioos:station:WAVCIS:CSI06:1,2008-11-04T18:00:00Z,28.8667,-90.4833,10.0,9.19,66.0,,'11111222,11111222,99999999' 
WAVCIS,ioos:station:WAVCIS:CSI06:1,2008-11-04T19:00:00Z,28.8667,-90.4833,10.0,8.94,68.0,,'11111222,11111222,99999999' 
WAVCIS,ioos:station:WAVCIS:CSI06:1,2008-11-04T20:00:00Z,28.8667,-90.4833,10.0,8.57,74.0,,'11111222,11111222,99999999' 
WAVCIS,ioos:station:WAVCIS:CSI06:1,2008-11-04T21:00:00Z,28.8667,-90.4833,10.0,8.03,67.0,,'11111222,11111222,99999999' 
WAVCIS,ioos:station:WAVCIS:CSI06:1,2008-11-04T22:00:00Z,28.8667,-90.4833,10.0,8.07,68.0,,'11111222,11111222,99999999' 
WAVCIS,ioos:station:WAVCIS:CSI06:1,2008-11-04T23:00:00Z,28.8667,-90.4833,10.0,7.57,74.0,,'11111222,11111222,99999999' 
WAVCIS,ioos:station:WAVCIS:CSI06:1,2008-11-05T00:00:00Z,28.8667,-90.4833,10.0,7.4,72.0,,'11111222,11111222,99999999' 
WAVCIS,ioos:station:WAVCIS:CSI06:1,2008-11-05T01:00:00Z,28.8667,-90.4833,10.0,7.24,71.0,,'11111222,11111222,99999999' 
WAVCIS,ioos:station:WAVCIS:CSI06:1,2008-11-05T02:00:00Z,28.8667,-90.4833,10.0,6.196,82.0,,'11111222,11111222,99999999' 
WAVCIS,ioos:station:WAVCIS:CSI06:1,2008-11-05T03:00:00Z,28.8667,-90.4833,10.0,6.704,86.0,,'11111222,11111222,99999999' 
WAVCIS,ioos:station:WAVCIS:CSI06:1,2008-11-05T04:00:00Z,28.8667,-90.4833,10.0,6.247,100.0,,'11111222,11111222,99999999' 
WAVCIS,ioos:station:WAVCIS:CSI06:1,2008-11-05T05:00:00Z,28.8667,-90.4833,10.0,6.276,101.0,,'11111222,11111222,99999999' 
WAVCIS,ioos:station:WAVCIS:CSI06:1,2008-11-05T06:00:00Z,28.8667,-90.4833,10.0,6.786,103.0,,'11111222,11111222,99999999' 
WAVCIS,ioos:station:WAVCIS:CSI06:1,2008-11-05T07:00:00Z,28.8667,-90.4833,10.0,7.02,93.0,,'11111222,11111222,99999999' 
WAVCIS,ioos:station:WAVCIS:CSI06:1,2008-11-05T08:00:00Z,28.8667,-90.4833,10.0,6.467,100.0,,'11111222,11111222,99999999' 
WAVCIS,ioos:station:WAVCIS:CSI06:1,2008-11-05T09:00:00Z,28.8667,-90.4833,10.0,5.563,105.0,,'11111222,11111222,99999999' 
WAVCIS,ioos:station:WAVCIS:CSI06:1,2008-11-05T10:00:00Z,28.8667,-90.4833,10.0,6.434,96.0,,'11111222,11111222,99999999' 
WAVCIS,ioos:station:WAVCIS:CSI06:1,2008-11-05T11:00:00Z,28.8667,-90.4833,10.0,5.491,113.0,,'11111222,11111222,99999999' 
WAVCIS,ioos:station:WAVCIS:CSI06:1,2008-11-05T12:00:00Z,28.8667,-90.4833,10.0,5.401,114.0,,'11111222,11111222,99999999' 
WAVCIS,ioos:station:WAVCIS:CSI06:1,2008-11-05T13:00:00Z,28.8667,-90.4833,10.0,5.565,117.0,,'11111222,11111222,99999999' 
WAVCIS,ioos:station:WAVCIS:CSI06:1,2008-11-05T14:00:00Z,28.8667,-90.4833,10.0,6.504,115.0,,'11111222,11111222,99999999' 
WAVCIS,ioos:station:WAVCIS:CSI06:1,2008-11-05T15:00:00Z,28.8667,-90.4833,10.0,6.501,115.0,,'11111222,11111222,99999999' 
WAVCIS,ioos:station:WAVCIS:CSI06:1,2008-11-05T16:00:00Z,28.8667,-90.4833,10.0,6.094,122.0,,'11111222,11111222,99999999' 
WAVCIS,ioos:station:WAVCIS:CSI06:1,2008-11-05T17:00:00Z,28.8667,-90.4833,10.0,5.707,126.0,,'11111222,11111222,99999999' 
WAVCIS,ioos:station:WAVCIS:CSI06:1,2008-11-05T18:00:00Z,28.8667,-90.4833,10.0,5.37,125.0,,'11111222,11111222,99999999' 
WAVCIS,ioos:station:WAVCIS:CSI06:1,2008-11-05T19:00:00Z,28.8667,-90.4833,10.0,4.764,117.0,,'11111222,11111222,99999999' 
WAVCIS,ioos:station:WAVCIS:CSI06:1,2008-11-05T20:00:00Z,28.8667,-90.4833,10.0,4.651,91.0,,'11111222,11111222,99999999' 
WAVCIS,ioos:station:WAVCIS:CSI06:1,2008-11-05T21:00:00Z,28.8667,-90.4833,10.0,4.863,80.0,,'11111222,11111222,99999999' 
WAVCIS,ioos:station:WAVCIS:CSI06:1,2008-11-05T22:00:00Z,28.8667,-90.4833,10.0,4.712,88.0,,'11111222,11111222,99999999' 
WAVCIS,ioos:station:WAVCIS:CSI06:1,2008-11-05T23:00:00Z,28.8667,-90.4833,10.0,4.783,105.0,,'11111222,11111222,99999999' 
WAVCIS,ioos:station:WAVCIS:CSI06:1,2008-11-06T00:00:00Z,28.8667,-90.4833,10.0,6.676,97.0,,'11111222,11111222,99999999' 
WAVCIS,ioos:station:WAVCIS:CSI06:1,2008-11-06T01:00:00Z,28.8667,-90.4833,10.0,6.513,116.0,,'11111222,11111222,99999999' 
WAVCIS,ioos:station:WAVCIS:CSI06:1,2008-11-06T02:00:00Z,28.8667,-90.4833,10.0,6.476,120.0,,'11111222,11111222,99999999' 
WAVCIS,ioos:station:WAVCIS:CSI06:1,2008-11-06T03:00:00Z,28.8667,-90.4833,10.0,7.77,124.0,,'11111222,11111222,99999999' 
WAVCIS,ioos:station:WAVCIS:CSI06:1,2008-11-06T05:00:00Z,28.8667,-90.4833,10.0,8.03,137.0,,'11111222,11111222,99999999' 
WAVCIS,ioos:station:WAVCIS:CSI06:1,2008-11-06T06:00:00Z,28.8667,-90.4833,10.0,8.33,143.0,,'11111222,11111222,99999999' 
WAVCIS,ioos:station:WAVCIS:CSI06:1,2008-11-06T08:00:00Z,28.8667,-90.4833,10.0,7.92,143.0,,'11111222,11111222,99999999' 
WAVCIS,ioos:station:WAVCIS:CSI06:1,2008-11-06T09:00:00Z,28.8667,-90.4833,10.0,7.57,152.0,,'11111222,11111222,99999999' 
WAVCIS,ioos:station:WAVCIS:CSI06:1,2008-11-06T10:00:00Z,28.8667,-90.4833,10.0,7.28,154.0,,'11111222,11111222,99999999' 
WAVCIS,ioos:station:WAVCIS:CSI06:1,2008-11-06T11:00:00Z,28.8667,-90.4833,10.0,6.384,157.0,,'11111222,11111222,99999999' 
WAVCIS,ioos:station:WAVCIS:CSI06:1,2008-11-06T12:00:00Z,28.8667,-90.4833,10.0,6.458,153.0,,'11111222,11111222,99999999' 
WAVCIS,ioos:station:WAVCIS:CSI06:1,2008-11-06T13:00:00Z,28.8667,-90.4833,10.0,6.113,160.0,,'11111222,11111222,99999999' 
WAVCIS,ioos:station:WAVCIS:CSI06:1,2008-11-06T14:00:00Z,28.8667,-90.4833,10.0,6.007,160.0,,'11111222,11111222,99999999' 
WAVCIS,ioos:station:WAVCIS:CSI06:1,2008-11-06T15:00:00Z,28.8667,-90.4833,10.0,6.693,153.0,,'11111222,11111222,99999999' 
WAVCIS,ioos:station:WAVCIS:CSI06:1,2008-11-06T16:00:00Z,28.8667,-90.4833,10.0,6.234,152.0,,'11111222,11111222,99999999' 
WAVCIS,ioos:station:WAVCIS:CSI06:1,2008-11-06T17:00:00Z,28.8667,-90.4833,10.0,7.31,152.0,,'11111222,11111222,99999999' 
WAVCIS,ioos:station:WAVCIS:CSI06:1,2008-11-06T19:00:00Z,28.8667,-90.4833,10.0,7.11,162.0,,'11111222,11111222,99999999' 
WAVCIS,ioos:station:WAVCIS:CSI06:1,2008-11-06T20:00:00Z,28.8667,-90.4833,10.0,6.861,158.0,,'11111222,11111222,99999999' 
WAVCIS,ioos:station:WAVCIS:CSI06:1,2008-11-06T21:00:00Z,28.8667,-90.4833,10.0,6.523,161.0,,'11111222,11111222,99999999' 
WAVCIS,ioos:station:WAVCIS:CSI06:1,2008-11-06T22:00:00Z,28.8667,-90.4833,10.0,5.807,166.0,,'11111222,11111222,99999999' 
WAVCIS,ioos:station:WAVCIS:CSI06:1,2008-11-06T23:00:00Z,28.8667,-90.4833,10.0,5.638,149.0,,'11111222,11111222,99999999' 
WAVCIS,ioos:station:WAVCIS:CSI06:1,2008-11-07T00:00:00Z,28.8667,-90.4833,10.0,6.45,322.0,,'11111222,11111222,99999999' 
WAVCIS,ioos:station:WAVCIS:CSI06:1,2008-11-07T01:00:00Z,28.8667,-90.4833,10.0,0.862,336.0,,'11111222,11111222,99999999' 
WAVCIS,ioos:station:WAVCIS:CSI06:1,2008-11-07T02:00:00Z,28.8667,-90.4833,10.0,1.32,302.0,,'11111222,11111222,99999999' 
WAVCIS,ioos:station:WAVCIS:CSI06:1,2008-11-07T03:00:00Z,28.8667,-90.4833,10.0,0.721,78.0,,'11111222,11111222,99999999' 
WAVCIS,ioos:station:WAVCIS:CSI06:1,2008-11-07T04:00:00Z,28.8667,-90.4833,10.0,1.813,101.0,,'11111222,11111222,99999999' 
WAVCIS,ioos:station:WAVCIS:CSI06:1,2008-11-07T05:00:00Z,28.8667,-90.4833,10.0,3.063,158.0,,'11111222,11111222,99999999' 
WAVCIS,ioos:station:WAVCIS:CSI06:1,2008-11-07T06:00:00Z,28.8667,-90.4833,10.0,8.42,178.0,,'11111222,11111222,99999999' 
WAVCIS,ioos:station:WAVCIS:CSI06:1,2008-11-07T07:00:00Z,28.8667,-90.4833,10.0,5.51,185.0,,'11111222,11111222,99999999' 
WAVCIS,ioos:station:WAVCIS:CSI06:1,2008-11-07T08:00:00Z,28.8667,-90.4833,10.0,5.428,196.0,,'11111222,11111222,99999999' 
WAVCIS,ioos:station:WAVCIS:CSI06:1,2008-11-07T09:00:00Z,28.8667,-90.4833,10.0,6.008,207.0,,'11111222,11111222,99999999' 
WAVCIS,ioos:station:WAVCIS:CSI06:1,2008-11-07T10:00:00Z,28.8667,-90.4833,10.0,6.825,209.0,,'11111222,11111222,99999999' 
WAVCIS,ioos:station:WAVCIS:CSI06:1,2008-11-07T11:00:00Z,28.8667,-90.4833,10.0,5.748,198.0,,'11111222,11111222,99999999' 
WAVCIS,ioos:station:WAVCIS:CSI06:1,2008-11-07T12:00:00Z,28.8667,-90.4833,10.0,6.043,190.0,,'11111222,11111222,99999999' 
WAVCIS,ioos:station:WAVCIS:CSI06:1,2008-11-07T13:00:00Z,28.8667,-90.4833,10.0,5.093,200.0,,'11111222,11111222,99999999' 
WAVCIS,ioos:station:WAVCIS:CSI06:1,2008-11-07T14:00:00Z,28.8667,-90.4833,10.0,3.522,229.0,,'11111222,11111222,99999999' 
WAVCIS,ioos:station:WAVCIS:CSI06:1,2008-11-07T15:00:00Z,28.8667,-90.4833,10.0,6.139,271.0,,'11111222,11111222,99999999' 
WAVCIS,ioos:station:WAVCIS:CSI06:1,2008-11-07T16:00:00Z,28.8667,-90.4833,10.0,3.606,322.0,,'11111222,11111222,99999999' 
WAVCIS,ioos:station:WAVCIS:CSI06:1,2008-11-07T17:00:00Z,28.8667,-90.4833,10.0,8.67,334.0,,'11111222,11111222,99999999' 
WAVCIS,ioos:station:WAVCIS:CSI06:1,2008-11-07T18:00:00Z,28.8667,-90.4833,10.0,7.98,9.0,,'11111222,11111222,99999999' 
WAVCIS,ioos:station:WAVCIS:CSI06:1,2008-11-07T19:00:00Z,28.8667,-90.4833,10.0,8.18,11.0,,'11111222,11111222,99999999' 
WAVCIS,ioos:station:WAVCIS:CSI06:1,2008-11-07T20:00:00Z,28.8667,-90.4833,10.0,6.57,12.0,,'11111222,11111222,99999999' 
WAVCIS,ioos:station:WAVCIS:CSI06:1,2008-11-07T21:00:00Z,28.8667,-90.4833,10.0,6.08,7.0,,'11111222,11111222,99999999' 
WAVCIS,ioos:station:WAVCIS:CSI06:1,2008-11-07T22:00:00Z,28.8667,-90.4833,10.0,5.267,6.0,,'11111222,11111222,99999999' 
WAVCIS,ioos:station:WAVCIS:CSI06:1,2008-11-07T23:00:00Z,28.8667,-90.4833,10.0,4.873,6.0,,'11111222,11111222,99999999' 
WAVCIS,ioos:station:WAVCIS:CSI06:1,2008-11-08T00:00:00Z,28.8667,-90.4833,10.0,5.481,7.0,,'11111222,11111222,99999999' 
WAVCIS,ioos:station:WAVCIS:CSI06:1,2008-11-08T01:00:00Z,28.8667,-90.4833,10.0,7.69,8.0,,'11111222,11111222,99999999' 
WAVCIS,ioos:station:WAVCIS:CSI06:1,2008-11-08T02:00:00Z,28.8667,-90.4833,10.0,8.34,12.0,,'11111222,11111222,99999999' 
WAVCIS,ioos:station:WAVCIS:CSI06:1,2008-11-08T03:00:00Z,28.8667,-90.4833,10.0,9.33,9.0,,'11111222,11111222,99999999' 
WAVCIS,ioos:station:WAVCIS:CSI06:1,2008-11-08T04:00:00Z,28.8667,-90.4833,10.0,8.86,15.0,,'11111222,11111222,99999999' 
WAVCIS,ioos:station:WAVCIS:CSI06:1,2008-11-08T05:00:00Z,28.8667,-90.4833,10.0,8.14,16.0,,'11111222,11111222,99999999' 
WAVCIS,ioos:station:WAVCIS:CSI06:1,2008-11-08T06:00:00Z,28.8667,-90.4833,10.0,7.63,18.0,,'11111222,11111222,99999999' 
WAVCIS,ioos:station:WAVCIS:CSI06:1,2008-11-08T07:00:00Z,28.8667,-90.4833,10.0,7.05,13.0,,'11111222,11111222,99999999' 
WAVCIS,ioos:station:WAVCIS:CSI06:1,2008-11-08T09:00:00Z,28.8667,-90.4833,10.0,6.008,7.0,,'11111222,11111222,99999999' 
WAVCIS,ioos:station:WAVCIS:CSI06:1,2008-11-08T10:00:00Z,28.8667,-90.4833,10.0,6.386,7.0,,'11111222,11111222,99999999' 
WAVCIS,ioos:station:WAVCIS:CSI06:1,2008-11-08T11:00:00Z,28.8667,-90.4833,10.0,6.222,5.0,,'11111222,11111222,99999999' 
WAVCIS,ioos:station:WAVCIS:CSI06:1,2008-11-08T12:00:00Z,28.8667,-90.4833,10.0,5.185,3.0,,'11111222,11111222,99999999' 
WAVCIS,ioos:station:WAVCIS:CSI06:1,2008-11-08T13:00:00Z,28.8667,-90.4833,10.0,4.828,5.0,,'11111222,11111222,99999999' 
WAVCIS,ioos:station:WAVCIS:CSI06:1,2008-11-08T14:00:00Z,28.8667,-90.4833,10.0,3.91,3.0,,'11111222,11111222,99999999' 
WAVCIS,ioos:station:WAVCIS:CSI06:1,2008-11-08T15:00:00Z,28.8667,-90.4833,10.0,3.558,2.0,,'11111222,11111222,99999999' 
WAVCIS,ioos:station:WAVCIS:CSI06:1,2008-11-08T16:00:00Z,28.8667,-90.4833,10.0,4.523,340.0,,'11111222,11111222,99999999' 
WAVCIS,ioos:station:WAVCIS:CSI06:1,2008-11-08T17:00:00Z,28.8667,-90.4833,10.0,4.925,336.0,,'11111222,11111222,99999999' 
WAVCIS,ioos:station:WAVCIS:CSI06:1,2008-11-08T18:00:00Z,28.8667,-90.4833,10.0,5.057,327.0,,'11111222,11111222,99999999' 
WAVCIS,ioos:station:WAVCIS:CSI06:1,2008-11-08T19:00:00Z,28.8667,-90.4833,10.0,3.974,316.0,,'11111222,11111222,99999999' 
WAVCIS,ioos:station:WAVCIS:CSI06:1,2008-11-08T20:00:00Z,28.8667,-90.4833,10.0,4.237,288.0,,'11111222,11111222,99999999' 
WAVCIS,ioos:station:WAVCIS:CSI06:1,2008-11-08T21:00:00Z,28.8667,-90.4833,10.0,4.834,295.0,,'11111222,11111222,99999999' 
WAVCIS,ioos:station:WAVCIS:CSI06:1,2008-11-08T22:00:00Z,28.8667,-90.4833,10.0,5.887,289.0,,'11111222,11111222,99999999' 
WAVCIS,ioos:station:WAVCIS:CSI06:1,2008-11-08T23:00:00Z,28.8667,-90.4833,10.0,6.313,282.0,,'11111222,11111222,99999999' 
WAVCIS,ioos:station:WAVCIS:CSI06:1,2008-11-09T00:00:00Z,28.8667,-90.4833,10.0,7.13,283.0,,'11111222,11111222,99999999' 
WAVCIS,ioos:station:WAVCIS:CSI06:1,2008-11-09T01:00:00Z,28.8667,-90.4833,10.0,7.22,282.0,,'11111222,11111222,99999999' 
WAVCIS,ioos:station:WAVCIS:CSI06:1,2008-11-09T02:00:00Z,28.8667,-90.4833,10.0,7.31,279.0,,'11111222,11111222,99999999' 
WAVCIS,ioos:station:WAVCIS:CSI06:1,2008-11-09T03:00:00Z,28.8667,-90.4833,10.0,6.674,279.0,,'11111222,11111222,99999999' 
WAVCIS,ioos:station:WAVCIS:CSI06:1,2008-11-09T04:00:00Z,28.8667,-90.4833,10.0,6.71,277.0,,'11111222,11111222,99999999' 
WAVCIS,ioos:station:WAVCIS:CSI06:1,2008-11-09T05:00:00Z,28.8667,-90.4833,10.0,7.39,279.0,,'11111222,11111222,99999999' 
WAVCIS,ioos:station:WAVCIS:CSI06:1,2008-11-09T06:00:00Z,28.8667,-90.4833,10.0,7.86,296.0,,'11111222,11111222,99999999' 
WAVCIS,ioos:station:WAVCIS:CSI06:1,2008-11-09T07:00:00Z,28.8667,-90.4833,10.0,8.1,298.0,,'11111222,11111222,99999999' 
WAVCIS,ioos:station:WAVCIS:CSI06:1,2008-11-09T08:00:00Z,28.8667,-90.4833,10.0,9.31,310.0,,'11111222,11111222,99999999' 
WAVCIS,ioos:station:WAVCIS:CSI06:1,2008-11-09T09:00:00Z,28.8667,-90.4833,10.0,8.26,337.0,,'11111222,11111222,99999999' 
WAVCIS,ioos:station:WAVCIS:CSI06:1,2008-11-09T10:00:00Z,28.8667,-90.4833,10.0,6.85,21.0,,'11111222,11111222,99999999' 
WAVCIS,ioos:station:WAVCIS:CSI06:1,2008-11-09T11:00:00Z,28.8667,-90.4833,10.0,7.62,30.0,,'11111222,11111222,99999999' 
WAVCIS,ioos:station:WAVCIS:CSI06:1,2008-11-09T12:00:00Z,28.8667,-90.4833,10.0,6.315,42.0,,'11111222,11111222,99999999' 
WAVCIS,ioos:station:WAVCIS:CSI06:1,2008-11-09T13:00:00Z,28.8667,-90.4833,10.0,6.706,54.0,,'11111222,11111222,99999999' 